Location: Newark
(10.3333°N, 37.7167°E)
Time: 15:37:04
(UTC+00:00)

STARLINK-1087 - Pass Details

Date: 04 February 2020
Orbit: 348 x 351 km, 53.0° (Epoch: 24 February)

Event Time Altitude Azimuth Distance (km) Brightness Sun altitude
Rises 17:17:13 0° 312° (NW) 2,146 7.1 -25.3°
Reaches altitude 10° 17:19:21 10° 301° (WNW) 1,304 6.1 -25.8°
Enters shadow 17:19:51 14° 296° (WNW) 1,122 5.8 -25.9°
